GW3748 Weather Reports


time (UTC)temp
F
wind
direction
speed
knots
gust
knots
rain 1hr
in
rain 24hr
in
rain mn
in
humidity
%
barometer
mb
20260508121545 48 263 3.5 5.2 0.00 0.88 0.00 94 1003.1
20260508120045 47 290 1.7 3.5 0.00 0.88 0.00 95 1003.2
20260508114547 46 295 1.7 3.5 0.00 0.88 0.00 95 1003.2
20260508113040 45 128 0.0 0.9 0.00 0.88 0.00 97 1003.1
20260508111543 42 99 0.0 1.7 0.00 0.88 0.00 97 1003.0
20260508110041 42 0 0.0 0.0 0.00 0.88 0.00 97 1003.1
20260508104541 40 0 0.0 0.0 0.00 0.88 0.00 96 1003.0
20260508103042 40 0 0.0 0.0 0.00 0.88 0.00 97 1003.0
20260508101538 39 0 0.0 0.0 0.00 0.88 0.00 97 1002.8
20260508100038 38 0 0.0 0.0 0.00 0.88 0.00 97 1002.7
20260508094603 38 0 0.0 0.0 0.00 0.92 0.00 97 1002.8
20260508093039 38 0 0.0 0.9 0.00 0.92 0.00 97 1002.6
20260508091542 38 210 0.0 0.9 0.00 0.92 0.00 97 1002.7
20260508090043 38 0 0.0 0.9 0.00 0.92 0.00 97 1002.7
20260508084540 38 210 0.0 0.9 0.00 0.95 0.00 97 1002.4
20260508083038 38 0 0.0 1.7 0.00 0.95 0.00 97 1002.6
20260508081558 38 98 0.0 0.9 0.00 0.94 0.00 97 1002.4
20260508080040 37 0 0.0 0.0 0.00 0.94 0.00 97 1002.4
20260508074538 37 0 0.0 0.9 0.00 0.98 0.00 97 1002.4
20260508073042 36 358 0.9 1.7 0.00 0.98 0.00 97 1002.4
20260508071547 35 0 0.0 0.0 0.00 0.98 0.00 96 1002.9
20260508070044 36 0 0.0 0.0 0.00 0.98 0.00 95 1002.6
20260508064539 36 0 0.0 0.0 0.00 0.99 0.00 95 1002.6
20260508063047 37 0 0.0 0.0 0.00 0.99 0.00 96 1002.5
20260508061534 36 0 0.0 0.0 0.00 0.99 0.00 95 1002.5
20260508060036 36 0 0.0 0.0 0.00 0.99 0.00 94 1002.6
20260508054544 38 0 0.0 0.0 0.00 1.00 0.00 94 1003.0
20260508053040 39 0 0.0 0.0 0.00 1.00 0.00 94 1002.8
20260508051540 41 0 0.0 0.0 0.00 1.00 0.00 94 1002.6
20260508050039 43 0 0.0 0.9 0.00 1.00 0.00 93 1003.0
20260508044538 43 0 0.9 2.6 0.00 1.00 0.00 93 1003.1
20260508043040 44 198 0.0 0.9 0.00 1.00 0.00 94 1002.9
20260508041538 44 262 0.9 2.6 0.00 1.00 0.00 94 1002.9
20260508040045 44 238 0.9 2.6 0.00 1.00 0.00 93 1002.8
20260508034539 45 216 0.0 1.7 0.00 1.00 0.00 93 1002.8
20260508033033 45 243 0.9 2.6 0.00 1.00 0.00 92 1003.1
20260508031541 45 240 0.9 2.6 0.00 1.00 0.00 92 1003.1
20260508030039 46 281 1.7 3.5 0.00 1.00 0.00 92 1003.1
20260508024547 46 264 1.7 3.5 0.00 1.00 1.00 92 1003.2
20260508023039 46 240 2.6 4.3 0.00 1.00 1.00 92 1003.3
20260508021539 46 243 1.7 5.2 0.00 1.00 1.00 92 1003.3
20260508020040 47 203 1.7 4.3 0.00 1.00 1.00 92 1003.3
20260508014542 47 245 1.7 5.2 0.00 1.00 1.00 91 1003.3
20260508013042 47 226 1.7 5.2 0.00 1.00 1.00 91 1003.4
20260508011538 47 229 0.0 1.7 0.00 1.00 1.00 91 1003.1
20260508010042 47 229 0.0 1.7 0.00 1.00 1.00 91 1003.2
20260508004544 47 218 0.9 2.6 0.00 1.00 1.00 91 1003.0
20260508003039 47 284 0.9 2.6 0.00 1.00 1.00 90 1002.9
20260508001538 48 259 1.7 4.3 0.00 1.00 1.00 89 1002.9
20260508000041 48 251 1.7 6.1 0.00 1.00 1.00 89 1003.0
20260507234534 49 259 2.6 5.2 0.00 1.00 1.00 90 1002.8
20260507233047 49 250 2.6 5.2 0.00 1.00 1.00 89 1002.6
20260507231539 51 283 3.5 6.1 0.00 1.00 1.00 87 1002.9
20260507230045 53 272 2.6 5.2 0.00 1.00 1.00 87 1002.6
20260507224542 54 268 4.3 8.7 0.00 1.00 1.00 85 1002.4
20260507223038 54 270 1.7 7.0 0.00 1.00 1.00 88 1002.6
20260507221540 53 253 1.7 6.1 0.00 1.00 1.00 90 1002.6
20260507220039 52 232 1.7 3.5 0.00 1.00 1.00 91 1002.4
20260507214549 52 243 2.6 6.1 0.00 1.00 1.00 91 1002.3
20260507213043 51 278 4.3 6.1 0.00 1.00 1.00 91 1002.3
20260507211535 51 297 2.6 5.2 0.00 1.00 1.00 93 1002.5
20260507210040 51 216 2.6 8.7 0.00 1.00 1.00 95 1002.6
20260507204539 51 214 1.7 5.2 0.00 1.00 1.00 96 1002.5
20260507203047 50 246 1.7 5.2 0.00 1.00 1.00 96 1002.4
20260507201546 49 287 2.6 7.0 0.00 1.00 1.00 95 1002.5
20260507200059 49 261 3.5 10.4 0.00 1.00 1.00 94 1002.6
20260507194540 50 157 4.3 8.7 0.01 1.00 1.00 95 1002.4
20260507193045 50 242 3.5 9.6 0.01 1.00 1.00 95 1002.4
20260507191538 50 289 4.3 9.6 0.01 1.00 1.00 95 1002.2
20260507190039 51 262 2.6 10.4 0.00 1.00 0.99 95 1002.3
20260507184541 50 238 6.1 13.0 0.01 0.99 0.98 94 1002.1
20260507183038 55 238 4.3 7.0 0.03 0.99 0.98 93 1002.1
20260507181538 54 207 0.9 5.2 0.08 0.99 0.98 95 1001.4
20260507180050 53 80 3.5 7.0 0.10 0.99 0.98 95 1001.0
20260507174539 53 98 3.5 7.0 0.11 0.97 0.96 95 1001.4
20260507173046 53 124 2.6 7.0 0.14 0.95 0.94 95 1002.1
20260507171541 53 111 3.5 7.0 0.14 0.90 0.89 95 1002.4
20260507170039 52 122 3.5 7.0 0.19 0.88 0.88 95 1001.9
20260507164550 52 129 2.6 6.1 0.21 0.86 0.85 95 1002.6
20260507163038 53 179 1.7 6.1 0.21 0.79 0.78 95 1003.3
20260507161540 53 152 2.6 4.3 0.24 0.75 0.74 95 1003.6
20260507160040 53 150 0.9 5.2 0.27 0.69 0.68 95 1003.6
20260507154550 53 175 2.6 5.2 0.30 0.64 0.63 95 1004.2
20260507153038 53 195 1.7 6.1 0.36 0.57 0.56 95 1003.8
20260507151539 54 153 0.9 3.5 0.37 0.50 0.49 95 1004.2
20260507150043 54 233 1.7 7.0 0.27 0.40 0.40 95 1005.0
20260507144540 54 262 2.6 12.2 0.19 0.33 0.32 94 1004.9
20260507143039 54 225 4.3 12.2 0.07 0.21 0.20 94 1004.7
20260507141542 54 206 8.7 15.6 0.00 0.13 0.12 93 1004.4
20260507140045 55 245 7.0 14.8 0.00 0.13 0.12 93 1003.8
20260507134541 55 159 6.1 13.0 0.00 0.13 0.12 93 1003.7
20260507133055 55 146 7.0 15.6 0.00 0.13 0.12 93 1004.1
20260507131548 55 185 6.1 16.5 0.00 0.13 0.12 92 1004.4
20260507130054 55 164 7.0 14.8 0.00 0.13 0.12 92 1004.8
20260507124537 55 123 7.0 14.8 0.00 0.13 0.12 92 1005.0
20260507123040 55 175 8.7 16.5 0.00 0.13 0.12 92 1005.2